Temperature
18 18 18 18 18 18 18 18 18 18 18 18 18 18 18 18 18 18 18 18 18 18 18 18 18 18 18 17 18 18 18 17 17 17 17 17 17 17 17 17 17 17 17
18 18 18 18 18 18 18 18 18 18 18 18 18 18 18 18 18 18 18 18 18 18 18 18 17 17 17 18 17 17 17 17 17 17 17 17 17 17 17 17 17 17 17
18 18 18 18 18 18 18 18 18 18 18 18 18 18 18 18 18 18 18 18 18 18 18 18 17 17 17 17 17 17 17 17 17 17 17 17 17 17 17 17 17 17 17
18 18 18 18 18 18 18 18 18 18 18 18 18 18 18 18 18 18 18 18 18 18 18 18 17 17 17 17 17 17 17 17 17 17 17 17 17 17 17 17 17 16 16
19 18 18 18 18 18 18 18 18 18 18 18 18 18 18 18 18 18 18 18 18 18 18 18 17 17 17 17 17 17 17 17 17 17 17 17 17 17 17 17 17 17 16
19 18 18 18 18 18 18 18 18 18 18 18 18 18 18 18 18 18 18 18 18 18 17 17 17 17 17 17 17 17 17 17 17 17 17 17 17 17 17 17 17 17 16
19 18 18 18 18 18 18 18 18 18 18 18 18 18 18 18 18 18 18 18 18 18 17 17 17 17 17 17 17 17 17 17 17 17 17 17 16 17 17 17 17 16 16
19 19 18 18 18 18 18 18 18 18 18 18 18 18 18 18 18 18 18 18 17 17 17 17 17 17 17 17 17 17 17 17 17 17 17 17 16 17 17 17 17 16 16
19 19 18 18 18 18 18 18 18 18 18 18 18 18 18 18 18 18 18 18 17 17 17 17 17 17 17 17 17 17 17 17 17 17 17 17 17 17 17 17 17 17 16
19 19 18 18 18 18 18 18 18 18 18 18 18 18 18 18 18 18 18 18 17 17 17 17 17 17 17 17 17 17 17 17 17 17 17 17 17 17 17 17 17 17 16
19 19 19 19 18 18 18 18 18 18 18 18 18 18 18 18 18 18 18 17 17 17 17 17 17 17 17 17 17 17 17 17 17 17 17 17 17 17 17 17 17 17 17
19 19 19 19 18 18 18 18 18 18 18 18 18 18 18 18 18 18 18 17 17 17 17 17 17 17 17 17 17 17 17 17 17 17 17 17 17 17 17 17 17 17 17
19 19 19 19 18 18 18 18 18 18 18 18 18 18 18 18 18 17 17 18 17 17 17 17 17 17 17 17 17 17 17 17 17 17 17 17 17 17 17 17 17 17 16
19 19 19 19 18 18 18 18 18 18 18 18 18 17 18 18 18 17 17 17 17 17 17 17 17 17 17 17 17 17 17 17 17 17 17 17 17 17 17 17 17 17 16
19 19 19 19 19 18 18 18 18 18 18 18 17 17 17 17 17 17 17 17 17 17 17 17 17 17 17 17 17 17 17 17 17 17 17 17 17 17 17 17 17 17 16
19 19 19 19 19 18 18 18 18 18 17 17 17 17 17 17 17 17 17 17 17 17 17 17 17 17 17 17 17 17 17 17 17 17 17 17 17 17 17 17 17 17 16
19 19 19 19 18 18 18 18 18 18 17 17 17 17 17 17 17 17 17 17 17 17 17 17 17 17 17 17 17 17 17 17 17 17 17 17 17 17 17 17 17 16 16
19 19 19 19 18 18 18 18 18 18 17 17 17 17 17 17 17 17 17 17 17 17 17 17 17 17 17 17 17 17 17 17 17 17 17 17 17 17 17 16 16 16 16
20 19 19 18 18 18 18 18 18 17 17 17 17 17 17 17 17 17 17 17 17 17 17 17 17 17 17 17 17 17 17 17 17 17 17 17 17 17 16 16 16 16 16
20 19 19 19 18 18 18 18 18 18 17 17 17 17 17 17 17 17 17 17 17 17 17 17 17 17 17 17 17 17 17 17 17 17 17 17 17 17 16 16 16 16 16
20 19 19 19 19 18 18 18 18 18 17 17 17 17 17 17 17 17 17 17 17 17 17 17 17 17 17 17 17 17 17 17 17 17 17 17 17 17 17 16 16 16 16
20 20 19 19 19 19 18 18 18 18 18 17 17 17 17 17 17 17 17 17 17 17 17 17 17 17 17 17 17 17 17 17 17 17 17 17 17 17 17 16 16 16 16
20 20 20 19 19 19 19 18 18 18 18 18 17 17 17 17 17 17 17 17 17 17 17 17 17 17 17 17 17 16 16 16 16 16 17 16 16 16 16 16 16 16 16
21 20 20 20 19 19 19 18 18 18 18 18 18 17 17 17 17 17 17 17 17 17 17 17 17 17 17 17 17 17 16 16 16 16 16 16 16 16 16 16 16 16 16
21 21 20 20 19 19 19 19 18 18 18 18 18 17 17 17 17 17 17 17 17 17 17 17 17 17 17 17 16 16 16 16 16 16 16 16 16 16 16 16 15 15 15
21 21 21 20 20 20 19 19 19 19 18 18 18 18 17 17 17 17 17 17 17 17 17 16 16 17 17 16 16 16 16 16 16 16 16 16 15 15 15 15 15 15 15
Wind_Speed
0 1 7 9 10 11 12 12 13 13 13 14 14 14 14 14 15 15 16 16 16 16 17 18 18 18 18 18 18 17 17 16 17 17 17 17 17 17 17 17 16 15 17
3 3 8 9 10 11 11 11 12 12 13 13 13 13 14 14 14 15 15 15 16 17 17 17 17 17 17 17 17 16 16 16 16 16 16 16 16 16 16 15 15 14 16
4 4 8 9 10 10 10 11 11 12 12 12 13 13 13 14 14 15 15 15 16 16 16 16 16 16 16 16 16 16 15 15 15 16 15 13 14 15 14 15 15 15 15
5 5 7 9 9 10 10 10 11 11 12 12 12 12 13 13 14 14 14 14 15 15 15 15 15 15 15 15 15 14 14 14 15 14 12 11 11 13 13 14 14 14 14
5 4 6 9 9 9 10 10 10 11 11 11 12 12 12 12 13 13 13 13 13 14 14 14 14 13 13 13 13 13 13 13 13 12 10 10 10 12 13 13 13 13 13
4 4 6 9 9 9 9 9 10 10 10 11 11 11 11 11 12 12 12 12 12 12 13 13 13 12 12 12 12 12 12 12 11 11 10 10 10 12 12 12 12 13 12
3 3 5 8 8 8 8 9 9 9 10 10 10 10 11 11 11 11 11 11 11 11 11 11 11 11 11 11 11 11 11 12 10 10 9 9 10 12 12 12 12 12 12
3 3 4 7 7 7 8 8 8 9 9 9 9 10 9 9 10 10 10 10 10 10 10 10 10 10 10 10 10 10 11 11 10 9 8 9 10 11 12 11 11 11 12
3 3 3 4 5 6 7 8 8 8 8 8 8 8 8 8 8 8 9 9 9 9 9 9 8 8 8 9 9 9 10 11 9 8 8 8 10 11 11 11 11 11 10
3 2 2 3 3 4 4 6 7 7 7 7 7 7 7 7 7 7 7 7 8 8 8 8 7 7 7 7 8 9 10 10 8 7 7 8 10 10 10 10 11 11 10
2 1 1 2 2 3 3 4 5 6 6 6 5 6 6 5 5 5 5 6 6 6 7 6 6 6 5 6 7 7 7 7 7 6 6 8 9 10 10 10 10 10 10
4 2 1 1 1 1 2 3 3 3 4 4 4 4 5 4 3 3 3 4 4 4 5 5 5 5 5 5 5 6 5 6 5 5 5 8 8 9 9 9 10 9 9
4 4 3 3 2 2 1 2 2 2 3 2 2 2 3 3 3 3 3 3 3 3 3 4 4 3 3 3 3 3 4 4 4 4 5 7 8 8 9 9 9 9 9
4 4 4 4 3 3 2 1 2 2 1 1 1 1 2 1 1 1 1 2 2 2 3 2 2 2 2 2 2 3 3 3 4 3 5 7 7 8 8 9 9 9 9
5 5 4 4 4 3 3 2 2 2 2 2 1 1 2 1 1 0 1 1 1 1 1 1 1 2 1 1 1 2 3 3 4 4 4 6 7 7 9 9 10 9 9
5 5 4 4 4 4 2 2 2 2 2 2 2 3 3 2 1 1 0 0 1 1 0 1 1 1 1 1 1 1 2 3 4 4 5 5 7 7 8 9 10 10 10
5 4 4 4 3 3 3 3 2 2 2 2 2 3 3 2 2 1 1 0 1 1 0 1 1 1 1 1 1 1 2 2 3 4 5 5 5 7 8 9 10 10 10
4 4 4 4 4 3 3 2 2 2 2 2 2 2 3 3 3 2 1 1 1 0 1 1 1 1 1 1 0 1 1 2 3 4 4 4 5 5 7 9 10 10 10
5 5 4 3 4 3 2 2 2 1 1 1 1 2 2 2 3 3 2 1 0 1 1 1 1 1 1 1 1 1 1 2 2 3 3 4 5 5 6 7 8 9 9
4 4 4 3 3 3 2 2 2 1 0 1 1 2 3 2 3 3 2 1 1 1 1 1 1 1 1 1 0 1 1 1 1 2 3 3 4 4 5 5 5 6 7
4 4 3 3 3 3 2 2 1 1 0 0 1 3 3 3 3 3 1 1 1 1 2 2 1 1 1 1 2 1 2 1 0 1 1 2 2 3 3 4 4 4 5
5 4 4 4 3 3 2 2 2 1 1 1 1 1 2 2 3 2 2 1 1 1 2 2 2 2 1 1 2 1 1 2 2 1 1 1 2 1 2 3 3 3 3
5 5 5 4 4 3 3 2 2 2 2 1 1 1 1 2 2 2 2 2 2 2 3 3 3 4 2 1 2 3 2 2 1 2 1 1 1 1 0 1 2 2 3
7 5 4 4 4 3 3 3 3 2 1 1 1 1 1 0 1 1 2 2 2 2 3 3 3 3 3 3 1 2 2 3 2 1 2 2 2 1 1 1 1 1 1
7 6 5 4 3 3 4 4 3 2 1 1 0 1 1 1 1 1 1 1 1 2 2 2 2 3 3 3 2 2 1 1 2 2 2 1 1 1 1 1 1 0 0
6 6 5 5 4 4 4 4 4 3 2 1 0 0 1 1 1 1 0 1 1 1 2 2 2 3 3 3 3 3 3 2 3 3 3 1 1 1 2 1 1 1 1
Wind_Direction
85 99 109 101 98 94 91 87 87 87 89 92 94 96 98 99 99 99 99 101 103 103 103 107 111 111 113 114 115 117 118 119 120 121 121 119 117 116 115 115 114 114 116
138 115 114 107 102 99 96 93 92 91 91 94 95 95 96 99 100 100 100 101 103 104 104 106 109 110 112 113 115 116 118 119 121 123 123 121 120 119 119 118 118 120 120
109 112 116 113 107 103 100 98 97 95 94 96 97 97 97 99 100 100 101 102 103 104 106 108 109 112 113 114 115 117 119 120 122 121 119 117 122 125 124 124 124 122 121
119 115 121 116 111 107 104 101 100 98 96 96 98 101 101 100 100 100 100 101 102 103 105 108 110 111 112 115 117 117 119 120 122 120 114 117 123 127 127 126 126 124 123
117 124 134 121 114 111 107 104 102 101 99 98 99 102 102 102 102 101 100 100 102 104 105 108 109 110 111 115 117 118 122 124 123 117 115 116 121 129 130 130 130 128 127
120 134 141 127 120 114 111 109 105 104 102 102 101 102 104 105 105 104 103 101 102 104 106 108 109 110 111 114 117 120 124 124 119 115 117 121 127 133 134 134 134 132 131
126 135 144 131 126 122 117 113 109 109 108 106 105 105 107 107 106 106 106 104 102 105 107 108 110 111 111 116 118 120 122 123 119 118 122 128 134 137 136 135 133 133 132
124 122 132 134 132 127 122 117 112 111 109 107 108 107 107 107 108 107 107 107 106 106 109 109 109 109 108 112 116 117 123 124 123 124 126 133 138 139 139 138 138 137 136
106 101 100 117 125 125 124 122 118 113 110 108 109 109 108 109 111 110 110 110 109 107 108 108 107 104 102 109 116 119 126 126 124 128 131 137 142 144 145 145 144 144 144
86 81 87 89 92 97 112 123 121 117 112 109 108 109 109 108 108 110 110 111 110 108 106 105 105 104 101 107 117 121 126 126 125 128 134 145 147 149 150 150 149 149 148
155 101 95 99 97 97 109 124 120 118 114 106 103 108 96 79 79 88 106 115 116 113 109 106 105 105 99 104 113 118 121 128 131 137 148 155 157 158 156 156 157 157 156
193 200 184 153 141 130 125 104 101 98 97 90 82 86 85 79 70 69 79 106 116 114 110 105 100 94 86 90 98 110 122 137 142 151 166 168 168 167 166 165 166 165 164
195 201 193 192 183 159 118 112 109 90 79 77 71 85 88 68 48 39 31 36 45 66 76 79 77 78 88 94 98 109 132 142 151 165 174 176 179 179 178 177 176 173 171
185 201 197 186 179 180 169 153 145 126 102 79 11 97 116 82 36 22 12 18 31 46 60 54 66 76 90 107 129 137 150 157 163 174 187 188 190 189 189 187 186 186 184
194 202 196 178 179 180 178 190 172 183 177 203 221 200 170 150 161 341 325 340 2 37 77 54 52 58 52 68 123 144 156 167 177 186 195 196 197 198 197 195 196 198 196
205 205 195 185 186 176 181 191 201 204 200 210 223 218 196 178 170 158 178 302 308 300 150 104 81 70 60 99 102 155 184 182 189 192 204 210 213 213 207 204 204 205 206
198 197 193 192 185 184 188 199 202 205 197 208 228 219 196 185 179 173 189 267 277 274 126 85 78 86 97 101 103 172 196 196 195 203 210 215 221 224 218 216 217 216 215
183 182 192 190 174 181 185 186 175 173 188 223 232 215 197 190 190 177 176 272 285 269 113 107 112 107 90 104 215 247 211 213 211 209 210 216 221 229 230 228 226 226 227
181 178 177 172 163 167 162 147 137 143 173 219 217 222 219 204 196 180 175 234 221 144 154 160 116 142 156 172 234 267 254 240 229 218 211 221 223 228 236 242 238 236 236
171 168 169 159 150 142 121 104 87 83 55 223 216 225 220 209 196 180 173 207 175 150 163 140 137 132 154 160 132 14 332 268 236 228 226 225 225 228 233 240 244 247 247
163 161 169 169 164 142 124 132 137 190 235 272 248 237 227 216 199 181 182 193 182 186 198 177 150 139 119 120 95 28 1 357 320 264 249 226 224 227 219 224 232 240 250
183 181 179 182 172 168 160 149 154 146 175 219 278 280 227 217 210 196 185 203 203 188 191 181 167 167 184 148 136 111 353 352 10 360 329 243 239 212 211 225 226 234 239
189 193 191 184 176 175 160 121 91 70 41 28 2 320 266 215 217 214 210 198 202 193 207 208 187 180 192 210 180 158 162 230 314 356 12 14 17 57 250 240 234 239 236
193 188 181 174 170 169 154 144 143 149 180 242 257 273 312 21 254 239 221 206 197 193 208 220 202 194 183 205 208 203 188 172 178 304 350 16 36 35 347 318 277 241 226
182 177 176 167 166 161 153 156 150 158 195 238 328 352 2 4 354 306 241 209 202 200 211 222 214 206 198 199 197 181 172 164 185 192 252 321 18 19 18 17 35 29 165
171 169 167 164 168 159 156 158 164 173 187 184 236 357 341 336 334 336 297 197 198 207 221 228 223 216 214 208 203 192 182 184 190 189 212 228 284 347 17 21 25 37 115
Height
1527 1527 1527 1527 1528 1528 1528 1528 1527 1527 1527 1527 1527 1528 1528 1528 1528 1528 1528 1529 1530 1531 1532 1533 1534 1536 1538 1539 1541 1542 1544 1546 1548 1549 1551 1552 1554 1555 1557 1558 1559 1560 1562
1529 1529 1529 1530 1530 1530 1530 1530 1530 1530 1530 1530 1530 1530 1531 1531 1531 1532 1532 1533 1534 1535 1535 1537 1538 1539 1541 1542 1544 1545 1546 1548 1550 1551 1553 1554 1556 1557 1559 1560 1561 1562 1563
1530 1531 1531 1532 1532 1532 1532 1533 1533 1533 1533 1533 1533 1533 1534 1534 1534 1535 1535 1536 1537 1538 1539 1540 1541 1542 1543 1545 1546 1547 1549 1550 1552 1553 1555 1556 1558 1559 1560 1562 1563 1564 1565
1532 1533 1533 1534 1534 1535 1535 1535 1535 1535 1535 1536 1536 1536 1537 1537 1537 1538 1538 1539 1540 1541 1542 1543 1544 1545 1546 1547 1548 1550 1551 1552 1554 1555 1557 1558 1559 1561 1562 1563 1565 1566 1567
1534 1535 1535 1536 1537 1537 1537 1537 1537 1538 1538 1538 1538 1539 1539 1540 1540 1541 1542 1542 1543 1544 1545 1546 1547 1548 1549 1550 1551 1552 1553 1554 1556 1557 1558 1560 1561 1562 1563 1565 1566 1567 1568
1536 1537 1537 1538 1539 1539 1539 1539 1540 1540 1540 1541 1541 1541 1542 1543 1543 1544 1544 1545 1546 1547 1548 1548 1549 1551 1551 1552 1553 1554 1555 1556 1558 1559 1560 1562 1563 1564 1565 1566 1568 1569 1570
1538 1538 1539 1540 1541 1541 1542 1542 1542 1542 1543 1543 1543 1544 1544 1545 1546 1546 1547 1547 1548 1549 1550 1551 1552 1553 1554 1555 1556 1556 1557 1558 1559 1561 1562 1563 1564 1565 1567 1568 1569 1570 1571
1540 1541 1541 1542 1543 1543 1543 1544 1544 1544 1545 1545 1546 1546 1547 1547 1548 1549 1549 1550 1551 1551 1552 1553 1554 1555 1556 1557 1558 1558 1560 1560 1561 1563 1564 1565 1566 1567 1568 1569 1570 1571 1572
1542 1543 1543 1544 1545 1545 1546 1546 1546 1546 1547 1547 1548 1548 1549 1550 1550 1551 1551 1552 1553 1553 1554 1555 1556 1557 1558 1559 1560 1560 1561 1562 1563 1564 1565 1566 1567 1568 1569 1570 1571 1572 1573
1544 1545 1545 1546 1547 1547 1547 1548 1548 1549 1549 1549 1550 1550 1551 1552 1552 1553 1554 1554 1555 1556 1556 1557 1558 1559 1560 1561 1561 1562 1563 1564 1564 1565 1566 1567 1568 1569 1570 1571 1572 1573 1574
1545 1546 1547 1548 1548 1549 1549 1550 1550 1550 1551 1552 1552 1552 1553 1554 1554 1555 1556 1556 1557 1558 1558 1559 1560 1561 1562 1562 1563 1564 1564 1565 1566 1567 1567 1568 1569 1570 1571 1572 1573 1574 1575
1547 1548 1548 1549 1550 1550 1551 1551 1552 1552 1553 1553 1554 1554 1555 1556 1556 1557 1557 1558 1559 1560 1560 1561 1562 1563 1563 1564 1565 1565 1566 1566 1567 1567 1568 1569 1570 1571 1572 1572 1573 1574 1575
1548 1549 1550 1550 1551 1552 1552 1553 1553 1554 1554 1555 1555 1556 1557 1557 1558 1558 1559 1559 1560 1561 1562 1562 1563 1564 1565 1565 1566 1566 1567 1567 1568 1568 1569 1570 1571 1571 1572 1573 1574 1575 1576
1549 1550 1551 1551 1552 1553 1553 1554 1555 1555 1556 1556 1557 1557 1558 1559 1559 1560 1560 1561 1562 1562 1563 1564 1565 1565 1566 1566 1567 1567 1568 1568 1568 1569 1569 1570 1571 1572 1572 1573 1574 1575 1576
1550 1551 1552 1552 1553 1554 1554 1555 1556 1556 1557 1557 1558 1558 1559 1560 1560 1561 1561 1562 1563 1563 1564 1565 1565 1566 1567 1567 1567 1568 1568 1569 1569 1569 1570 1570 1571 1571 1572 1573 1574 1575 1575
1551 1552 1552 1553 1553 1554 1555 1555 1556 1557 1557 1557 1558 1559 1559 1560 1561 1561 1562 1562 1563 1564 1565 1565 1566 1566 1567 1567 1568 1568 1569 1569 1569 1569 1570 1570 1571 1571 1572 1572 1573 1574 1575
1551 1552 1552 1553 1554 1554 1555 1556 1556 1557 1557 1558 1558 1559 1559 1560 1561 1561 1562 1563 1564 1564 1565 1565 1566 1566 1567 1567 1568 1568 1569 1569 1569 1569 1569 1570 1570 1571 1571 1572 1573 1573 1574
1551 1551 1552 1553 1554 1554 1555 1556 1556 1557 1557 1558 1558 1559 1559 1560 1560 1561 1562 1563 1563 1564 1565 1565 1566 1566 1567 1567 1568 1568 1568 1568 1569 1569 1569 1569 1569 1570 1570 1571 1572 1572 1573
1551 1551 1552 1553 1553 1554 1555 1556 1556 1557 1557 1557 1558 1558 1559 1560 1560 1561 1561 1562 1563 1563 1564 1565 1565 1566 1566 1567 1567 1567 1567 1567 1568 1568 1568 1568 1568 1569 1569 1570 1571 1571 1572
1551 1551 1552 1553 1553 1554 1554 1555 1556 1556 1556 1557 1557 1558 1558 1559 1559 1560 1561 1561 1562 1563 1563 1564 1564 1565 1565 1566 1566 1566 1566 1566 1566 1566 1566 1567 1567 1567 1568 1569 1569 1570 1570
1551 1551 1551 1552 1553 1553 1554 1555 1555 1555 1556 1556 1557 1557 1557 1558 1558 1559 1560 1560 1561 1561 1562 1563 1563 1563 1564 1564 1564 1564 1564 1565 1565 1565 1565 1565 1565 1566 1566 1567 1568 1568 1569
1550 1550 1551 1551 1552 1553 1554 1554 1555 1555 1555 1556 1556 1556 1557 1557 1558 1558 1558 1559 1559 1560 1561 1561 1562 1562 1562 1563 1563 1563 1563 1564 1563 1563 1563 1563 1563 1564 1564 1565 1566 1566 1566
1548 1550 1550 1551 1552 1552 1553 1554 1554 1554 1555 1555 1556 1556 1556 1556 1556 1557 1557 1558 1558 1558 1559 1560 1560 1560 1561 1561 1562 1562 1562 1562 1562 1562 1562 1562 1562 1562 1563 1563 1563 1564 1564
1547 1549 1550 1551 1551 1552 1552 1553 1553 1554 1554 1555 1555 1555 1555 1555 1556 1556 1556 1556 1556 1557 1557 1558 1558 1559 1559 1559 1560 1560 1561 1561 1561 1560 1561 1561 1561 1561 1561 1561 1561 1561 1561
1546 1547 1549 1550 1550 1551 1552 1552 1553 1553 1554 1554 1554 1555 1555 1555 1555 1555 1555 1555 1555 1555 1556 1556 1556 1557 1557 1557 1557 1558 1558 1558 1559 1559 1558 1559 1559 1559 1559 1559 1559 1559 1559
1544 1546 1547 1549 1549 1550 1551 1552 1552 1553 1553 1554 1554 1554 1554 1554 1554 1554 1554 1554 1554 1554 1554 1554 1554 1554 1555 1555 1555 1555 1556 1556 1556 1556 1556 1556 1556 1557 1557 1557 1557 1557 1557